Welcome to Crazy Orc, l'antre du jeu de rôles à Lyon. Please login or sign up.

22 Mai 2024 à 23:22:54

Login with username, password and session length

Crazy Orc, l'antre du jeu de rôles à Lyon - Centre de statistiques

Statistiques générales

Total des membres:
798
Total des messages:
98541
Total des sujets:
4337
Total des catégories:
4
Membres en ligne:
47
Connexions simultanées:
808 - 21 Janvier 2020 à 20:55:59
En ligne aujourd'hui:
257
Total des pages vues:
44204426
Moyenne des inscriptions par jour:
0.26
Moyenne des messages par jour:
22.66
Moyenne des sujets par jour:
1.04
Total des sections:
40
Dernier membre:
Helzie
Moyenne d'utilisateurs connectés par jour:
54.91
Statistiques des sexes:
Ne pas afficher: 365
Masculin: 362
Féminin: 71
Pages vues en moyenne par jour:
7032.2

Top 10 des posteurs

ManuDevil
7077
GroumpH
5098
nunch
3857
LeDupontesque
3084
jules
3026
Mandy
2883
Scratchy
2766
MAO
2493
snake
1947
Le0
1878

Top lanceurs de sujets

nunch
600
Morithil
472
ManuDevil
292
GroumpH
246
Scratchy
132
MAO
110
LeDupontesque
106
jules
99
snake
92
CCCP
86

Le plus de temps en ligne

Mandy
133 j 19 h 59 m
GroumpH
112 j 9 h 16 m
CCCP
88 j 23 h 12 m
Nukeflow
73 j 8 h 19 m
ManuDevil
69 j 10 h 42 m
Felipe
61 j 12 h 19 m
dao
56 j 17 h 58 m
nunch
49 j 1 h 47 m
Patate
43 j 9 h 36 m
Rh
42 j 23 h 32 m

Les utilisateurs les plus aimés

ManuDevil
83
Arkana31
76
MJulien
26
Morithil
25
Phil
24
Lionhell
24
LeDupontesque
22
Patate
18
DeReel (il)
16
Haley Lektrik
12

Historique du forum (basé sur l'heure interne du forum)

Résumé annuel Nouveaux sujets Nouveaux messages Nouveaux membres Connexions simultanées Pages vues
* 2024 72 450 64 600 4900626
Mai 2024 13 50 3 520 779697
Avril 2024 16 93 16 600 1613449
Mars 2024 14 105 12 553 672303
Février 2024 17 116 25 349 567612
Janvier 2024 12 86 8 301 1267565
* 2023 193 1234 127 260 5271275
Décembre 2023 17 64 5 260 1399734
Novembre 2023 12 123 14 217 909538
Octobre 2023 21 141 12 187 333148
Septembre 2023 19 182 18 138 366302
Août 2023 8 42 7 130 236673
2023-08-01 0 3 0 88 9908
2023-08-02 0 1 0 92 25688
2023-08-03 0 0 1 130 22181
2023-08-04 0 0 0 94 6830
2023-08-05 0 0 0 104 7107
2023-08-06 0 0 0 97 8220
2023-08-07 0 0 0 91 8585
2023-08-08 0 1 0 84 6523
2023-08-09 0 2 0 100 8113
2023-08-10 0 1 0 79 6452
2023-08-11 0 0 0 56 3679
2023-08-12 0 0 0 14 5633
2023-08-13 0 2 0 13 9543
2023-08-14 0 0 0 15 7692
2023-08-15 0 0 0 17 4167
2023-08-16 0 1 1 17 5663
2023-08-17 0 2 0 17 6721
2023-08-18 1 3 1 22 6957
2023-08-19 0 0 0 18 6175
2023-08-20 0 2 0 24 6346
2023-08-21 5 8 0 22 6595
2023-08-22 0 0 1 25 6339
2023-08-23 0 0 0 34 5650
2023-08-24 0 0 0 15 3823
2023-08-25 0 1 0 16 6923
2023-08-26 0 2 0 20 5518
2023-08-27 1 1 3 75 7526
2023-08-28 0 2 0 31 5528
2023-08-29 1 2 0 38 6623
2023-08-30 0 0 0 23 5772
2023-08-31 0 8 0 52 4193
Juillet 2023 6 39 4 140 269774
Juin 2023 23 109 10 159 303581
Mai 2023 23 124 16 182 262587
Avril 2023 19 159 11 174 284480
Mars 2023 13 86 6 155 330966
Février 2023 13 62 5 165 274947
Janvier 2023 19 103 19 148 299545
* 2022 183 1154 96 261 3778792
Décembre 2022 9 37 1 161 306381
Novembre 2022 16 103 6 261 350274
Octobre 2022 11 120 17 208 290108
2022-10-01 0 0 0 46 10196
2022-10-02 0 2 0 45 6099
2022-10-03 0 6 2 63 9412
2022-10-04 1 5 1 114 7925
2022-10-05 0 2 0 119 10788
2022-10-06 0 2 0 135 8531
2022-10-07 0 5 1 86 8823
2022-10-08 0 2 1 99 11829
2022-10-09 0 0 0 117 10515
2022-10-10 0 0 0 132 13266
2022-10-11 0 7 1 144 10128
2022-10-12 1 9 1 208 15786
2022-10-13 1 5 1 182 15119
2022-10-14 2 2 0 147 13116
2022-10-15 1 8 1 192 17135
2022-10-16 0 0 2 155 8626
2022-10-17 2 5 0 105 7879
2022-10-18 0 0 0 58 5903
2022-10-19 0 2 0 64 7645
2022-10-20 0 10 1 106 4198
2022-10-21 0 4 1 56 4202
2022-10-22 0 2 0 122 10015
2022-10-23 0 2 0 96 8013
2022-10-24 0 2 1 77 6882
2022-10-25 1 12 1 96 8317
2022-10-26 2 7 1 110 6687
2022-10-27 0 5 0 51 5051
2022-10-28 0 2 0 69 7681
2022-10-29 0 5 0 68 11986
2022-10-30 0 3 0 65 8226
2022-10-31 0 4 1 131 10129
Septembre 2022 17 115 6 258 357415
Août 2022 15 108 9 147 318817
Juillet 2022 13 69 4 208 308045
Juin 2022 14 76 4 62 333112
Mai 2022 16 118 8 91 339244
Avril 2022 18 133 12 61 254691
Mars 2022 15 123 8 65 281935
2022-03-01 0 3 0 48 8993
2022-03-02 1 8 1 45 10064
2022-03-03 1 2 1 50 8853
2022-03-04 0 4 0 44 7834
2022-03-05 0 2 0 41 7119
2022-03-06 0 0 0 37 10411
2022-03-07 0 3 0 54 12871
2022-03-08 0 9 0 36 8020
2022-03-09 0 4 0 33 8530
2022-03-10 2 5 0 44 12186
2022-03-11 0 3 0 42 15489
2022-03-12 0 6 0 38 11948
2022-03-13 3 3 1 37 8518
2022-03-14 0 10 0 36 3827
2022-03-15 1 7 0 41 5401
2022-03-16 0 2 0 39 5518
2022-03-17 0 1 0 39 6210
2022-03-18 0 3 2 41 8871
2022-03-19 3 10 2 40 8261
2022-03-20 0 2 0 41 7879
2022-03-21 0 1 0 39 7223
2022-03-22 0 2 0 39 5856
2022-03-23 1 6 0 63 8416
2022-03-24 0 3 0 43 8308
2022-03-25 2 8 0 55 5010
2022-03-26 0 6 0 43 11353
2022-03-27 0 1 0 48 12519
2022-03-28 0 1 1 41 14845
2022-03-29 0 3 0 65 10578
2022-03-30 0 2 0 54 8689
2022-03-31 1 3 0 55 12335
Février 2022 17 84 9 58 314588
Janvier 2022 22 68 12 70 324182
* 2021 129 756 53 338 4376522
Décembre 2021 8 37 0 129 661064
Novembre 2021 13 99 4 153 262314
Octobre 2021 20 208 15 159 298103
Septembre 2021 24 171 10 280 285455
Août 2021 11 33 7 73 231609
Juillet 2021 6 8 2 81 305173
Juin 2021 17 31 2 135 311168
2021-06-01 6 7 0 65 11550
2021-06-02 0 0 0 77 12253
2021-06-03 0 1 0 103 12092
2021-06-04 0 0 0 93 8171
2021-06-05 0 0 0 104 7555
2021-06-06 0 0 0 95 7530
2021-06-07 0 0 0 79 8779
2021-06-08 1 3 0 79 10509
2021-06-09 0 1 0 90 8325
2021-06-10 0 0 0 88 8468
2021-06-11 0 0 0 93 9960
2021-06-12 0 1 0 92 10963
2021-06-13 1 1 1 86 7407
2021-06-14 0 0 0 105 6206
2021-06-15 0 0 0 82 32410
2021-06-16 4 6 0 83 12753
2021-06-17 0 0 0 96 11769
2021-06-18 0 2 0 101 7377
2021-06-19 0 1 0 135 12899
2021-06-20 0 0 0 131 10996
2021-06-21 3 4 1 131 11219
2021-06-22 0 0 0 101 8997
2021-06-23 0 1 0 93 7594
2021-06-24 0 0 0 103 9103
2021-06-25 0 0 0 80 9706
2021-06-26 0 0 0 79 9521
2021-06-27 0 0 0 84 11194
2021-06-28 0 0 0 75 8473
2021-06-29 2 2 0 83 8668
2021-06-30 0 1 0 71 8721
Mai 2021 3 31 4 268 597777
Avril 2021 10 51 6 287 308355
Mars 2021 7 24 1 308 444900
Février 2021 5 29 2 338 223056
Janvier 2021 5 34 0 322 447548
* 2020 206 1716 105 808 4713463
Décembre 2020 6 38 2 320 310487
2020-12-01 1 1 0 121 10809
2020-12-02 0 3 0 116 10099
2020-12-03 0 2 0 114 11876
2020-12-04 0 0 0 94 10791
2020-12-05 0 3 0 82 9574
2020-12-06 1 10 0 78 10653
2020-12-07 0 4 0 68 10998
2020-12-08 0 0 0 66 32260
2020-12-09 0 1 0 67 7435
2020-12-10 0 1 1 60 7610
2020-12-11 0 0 0 60 7643
2020-12-12 0 1 0 63 7412
2020-12-13 0 1 0 50 7185
2020-12-14 1 2 0 46 5821
2020-12-15 0 1 0 44 8427
2020-12-16 0 0 0 320 13083
2020-12-17 0 0 0 74 9703
2020-12-18 0 0 0 71 8569
2020-12-19 0 0 0 63 7390
2020-12-20 0 3 0 65 6819
2020-12-21 1 1 0 59 6108
2020-12-22 0 0 0 70 10438
2020-12-23 0 1 0 73 9331
2020-12-24 0 0 0 72 10558
2020-12-25 0 0 0 77 9826
2020-12-26 0 0 0 72 10399
2020-12-27 1 1 1 88 10008
2020-12-28 0 1 0 88 8712
2020-12-29 1 1 0 105 10795
2020-12-30 0 0 0 79 10368
2020-12-31 0 0 0 69 9787
Novembre 2020 12 97 3 352 464426
Octobre 2020 21 169 7 346 497422
Septembre 2020 30 356 15 133 325183
Août 2020 16 147 7 163 471897
Juillet 2020 16 77 2 100 345760
Juin 2020 17 60 5 127 452817
Mai 2020 7 22 3 295 321652
Avril 2020 10 47 1 189 300030
Mars 2020 24 253 3 199 467854
Février 2020 18 171 9 323 281798
2020-02-01 0 6 1 110 22857
2020-02-02 0 4 0 113 19748
2020-02-03 3 6 2 225 8437
2020-02-04 0 4 0 323 5481
2020-02-05 0 1 1 124 6151
2020-02-06 0 4 0 123 9304
2020-02-07 0 5 0 154 11432
2020-02-08 0 4 0 133 9152
2020-02-09 0 3 0 131 10284
2020-02-10 0 2 0 110 5432
2020-02-11 3 10 0 135 4471
2020-02-12 0 5 0 126 6869
2020-02-13 0 5 0 128 11009
2020-02-14 1 4 0 156 5546
2020-02-15 0 2 0 171 6296
2020-02-16 0 5 1 133 5755
2020-02-17 4 21 1 132 8743
2020-02-18 0 18 0 138 7508
2020-02-19 0 2 0 137 7400
2020-02-20 0 12 0 143 8914
2020-02-21 1 9 1 154 8884
2020-02-22 0 15 0 167 11618
2020-02-23 0 1 0 164 12863
2020-02-24 5 10 0 167 13726
2020-02-25 0 1 0 196 13396
2020-02-26 1 4 0 188 11554
2020-02-27 0 5 1 132 9231
2020-02-28 0 3 0 145 10882
2020-02-29 0 0 1 132 8855
Janvier 2020 29 279 48 808 474137
* 2019 246 3411 313 446 3308531
Décembre 2019 18 159 26 446 351248
Novembre 2019 16 245 33 325 524135
Octobre 2019 24 272 59 121 189762
Septembre 2019 25 386 54 141 376708
Août 2019 22 257 31 122 225760
Juillet 2019 24 281 62 149 190301
Juin 2019 11 171 3 112 246519
Mai 2019 23 311 10 167 218891
Avril 2019 21 294 9 174 311459
Mars 2019 22 372 16 142 344146
Février 2019 18 288 4 110 142132
Janvier 2019 22 375 6 113 187470
2019-01-01 1 15 2 48 3038
2019-01-02 1 15 0 46 2001
2019-01-03 0 6 0 21 1368
2019-01-04 1 11 0 45 1552
2019-01-05 0 6 0 53 3362
2019-01-06 0 8 0 63 4705
2019-01-07 0 9 0 55 12308
2019-01-08 2 13 0 53 18061
2019-01-09 1 10 1 113 10965
2019-01-10 1 29 1 113 14217
2019-01-11 0 13 0 109 30587
2019-01-12 0 7 0 109 8140
2019-01-13 1 10 0 107 5158
2019-01-14 4 31 0 103 4347
2019-01-15 1 10 0 105 3882
2019-01-16 1 13 0 111 3382
2019-01-17 1 18 1 80 2837
2019-01-18 0 8 0 101 2592
2019-01-19 0 12 1 113 3015
2019-01-20 0 16 0 100 2773
2019-01-21 1 13 0 104 3262
2019-01-22 0 4 0 103 2681
2019-01-23 0 18 0 100 2956
2019-01-24 0 14 0 103 4754
2019-01-25 1 3 0 104 2549
2019-01-26 4 22 0 106 3353
2019-01-27 0 4 0 102 3126
2019-01-28 0 7 0 108 3010
2019-01-29 0 8 0 102 5181
2019-01-30 0 6 0 100 9811
2019-01-31 1 16 0 89 8497
* 2018 338 6176 81 641 2624946
Décembre 2018 43 306 8 253 421582
Novembre 2018 26 467 9 641 383363
Octobre 2018 34 527 6 321 248725
Septembre 2018 34 641 10 127 216306
2018-09-01 0 20 0 24 4424
2018-09-02 0 20 0 65 4793
2018-09-03 3 22 0 85 7578
2018-09-04 0 24 0 84 8791
2018-09-05 1 20 0 84 9905
2018-09-06 0 36 1 83 11031
2018-09-07 1 20 0 87 10613
2018-09-08 5 19 0 83 13818
2018-09-09 0 26 0 92 9656
2018-09-10 0 27 1 20 3224
2018-09-11 4 21 1 27 4264
2018-09-12 1 51 1 24 2429
2018-09-13 3 46 2 20 7949
2018-09-14 1 20 0 91 11369
2018-09-15 0 14 0 95 9802
2018-09-16 1 34 0 104 6636
2018-09-17 0 20 0 94 6787
2018-09-18 0 13 0 99 5082
2018-09-19 1 16 0 101 8725
2018-09-20 3 10 1 105 5461
2018-09-21 2 27 1 93 5926
2018-09-22 1 28 0 115 6599
2018-09-23 0 15 0 102 6921
2018-09-24 1 14 1 103 6887
2018-09-25 0 17 0 114 7190
2018-09-26 1 10 0 111 7736
2018-09-27 0 14 0 116 7667
2018-09-28 4 13 0 127 6767
2018-09-29 0 7 1 99 2850
2018-09-30 1 17 0 36 5426
Août 2018 32 583 16 101 188648
Juillet 2018 21 386 3 104 182475
Juin 2018 31 442 3 110 213303
Mai 2018 21 422 4 107 174393
2018-05-01 2 18 0 85 4793
2018-05-02 0 25 0 84 5424
2018-05-03 0 9 0 92 5981
2018-05-04 0 25 0 86 3613
2018-05-05 0 11 0 103 4133
2018-05-06 2 6 0 98 5788
2018-05-07 0 7 0 90 5220
2018-05-08 2 35 2 96 5516
2018-05-09 1 10 0 87 4205
2018-05-10 0 11 0 91 4954
2018-05-11 0 3 0 97 4854
2018-05-12 1 15 0 92 4186
2018-05-13 1 6 0 96 5766
2018-05-14 1 15 0 90 6028
2018-05-15 1 18 0 88 6274
2018-05-16 0 13 0 91 5693
2018-05-17 0 13 0 89 5142
2018-05-18 0 14 0 90 4921
2018-05-19 1 14 0 106 4998
2018-05-20 5 19 0 107 6617
2018-05-21 0 10 0 104 5875
2018-05-22 0 6 0 100 7031
2018-05-23 0 13 0 100 6653
2018-05-24 1 5 0 97 6315
2018-05-25 1 7 0 96 6038
2018-05-26 0 11 0 103 5731
2018-05-27 0 7 0 96 5909
2018-05-28 2 31 0 106 6887
2018-05-29 0 27 0 101 6749
2018-05-30 0 10 2 92 6528
2018-05-31 0 8 0 92 6571
Avril 2018 25 564 5 104 159849
Mars 2018 20 634 4 96 152933
Février 2018 25 631 7 93 121912
Janvier 2018 26 573 6 94 161457
* 2017 346 6100 56 180 1675168
Décembre 2017 37 499 6 91 136063
Novembre 2017 37 675 6 93 169670
2017-11-01 3 9 0 77 4022
2017-11-02 0 22 0 71 4259
2017-11-03 0 11 0 82 4272
2017-11-04 0 3 0 76 3820
2017-11-05 3 29 2 77 4573
2017-11-06 6 37 1 81 5440
2017-11-07 0 24 0 74 2841
2017-11-08 1 34 1 83 6609
2017-11-09 0 19 0 79 3795
2017-11-10 1 17 0 77 5155
2017-11-11 2 32 0 75 4737
2017-11-12 4 45 0 77 4783
2017-11-13 1 20 1 77 4342
2017-11-14 0 9 0 80 4249
2017-11-15 0 14 0 77 3973
2017-11-16 0 24 0 73 4676
2017-11-17 1 21 0 75 4258
2017-11-18 5 27 0 69 3974
2017-11-19 0 24 0 79 4936
2017-11-20 1 23 0 87 4575
2017-11-21 0 5 0 83 5092
2017-11-22 1 16 1 92 3731
2017-11-23 2 24 0 86 5187
2017-11-24 0 33 0 81 5193
2017-11-25 0 13 0 79 4469
2017-11-26 1 16 0 83 4212
2017-11-27 2 54 0 80 4643
2017-11-28 2 14 0 93 13745
2017-11-29 1 23 0 89 28566
2017-11-30 0 33 0 93 5543
Octobre 2017 15 426 2 93 151449
Septembre 2017 28 548 5 94 135543
Août 2017 29 384 6 99 148097
Juillet 2017 25 490 5 87 176472
Juin 2017 33 603 4 89 156248
Mai 2017 26 470 2 99 181189
2017-05-01 0 10 0 60 6651
2017-05-02 0 5 0 93 7583
2017-05-03 1 12 0 87 7979
2017-05-04 2 21 0 78 8358
2017-05-05 1 14 0 71 7427
2017-05-06 0 21 0 72 7076
2017-05-07 1 22 0 77 6140
2017-05-08 0 10 0 72 5729
2017-05-09 0 14 1 74 7689
2017-05-10 2 16 0 73 4488
2017-05-11 0 12 0 70 3188
2017-05-12 1 38 0 68 5384
2017-05-13 0 4 0 59 5267
2017-05-14 3 17 0 72 6766
2017-05-15 0 12 0 71 5041
2017-05-16 0 23 0 61 5057
2017-05-17 2 22 0 99 5471
2017-05-18 2 31 0 64 6069
2017-05-19 0 19 0 63 4606
2017-05-20 0 8 0 72 6432
2017-05-21 2 11 0 63 5595
2017-05-22 1 16 0 64 4783
2017-05-23 0 24 0 64 4472
2017-05-24 1 8 0 79 4750
2017-05-25 0 4 0 61 4617
2017-05-26 0 11 0 63 7032
2017-05-27 6 19 0 61 5588
2017-05-28 0 11 0 72 3450
2017-05-29 0 6 0 69 8108
2017-05-30 1 19 1 64 5031
2017-05-31 0 10 0 72 5362
Avril 2017 31 490 5 180 139896
Mars 2017 27 432 3 119 90981
2017-03-01 1 13 0 20 1366
2017-03-02 1 7 1 15 939
2017-03-03 4 15 0 16 1322
2017-03-04 1 4 1 14 1224
2017-03-05 0 11 0 14 760
2017-03-06 1 36 1 17 1184
2017-03-07 0 14 0 18 1120
2017-03-08 2 22 0 19 1229
2017-03-09 1 23 0 15 1153
2017-03-10 0 22 0 15 1149
2017-03-11 0 15 0 16 1171
2017-03-12 3 16 0 91 4295
2017-03-13 0 14 0 91 4471
2017-03-14 1 18 0 79 3743
2017-03-15 0 9 0 71 3377
2017-03-16 1 16 0 70 3703
2017-03-17 0 8 0 73 3263
2017-03-18 0 13 0 64 3669
2017-03-19 0 9 0 92 3639
2017-03-20 0 11 0 90 4905
2017-03-21 2 6 0 83 5720
2017-03-22 2 14 0 95 4760
2017-03-23 1 9 0 66 6486
2017-03-24 2 12 0 65 2928
2017-03-25 0 15 0 67 3275
2017-03-26 2 8 0 55 1890
2017-03-27 0 16 0 119 3309
2017-03-28 1 17 0 87 4615
2017-03-29 0 20 0 86 4109
2017-03-30 1 7 0 69 3543
2017-03-31 0 12 0 73 2664
Février 2017 31 587 7 87 74924
Janvier 2017 27 496 5 80 114636
* 2016 389 7721 79 245 2075605
Décembre 2016 34 533 2 170 118206
Novembre 2016 34 586 6 245 122991
Octobre 2016 43 726 7 191 160217
Septembre 2016 26 657 9 85 157449
Août 2016 31 721 9 114 169873
Juillet 2016 19 513 3 58 166690
2016-07-01 0 12 0 45 7913
2016-07-02 1 14 0 53 5460
2016-07-03 0 12 0 43 5640
2016-07-04 0 21 0 51 5125
2016-07-05 0 19 0 53 19299
2016-07-06 1 26 0 47 4798
2016-07-07 1 14 1 45 5226
2016-07-08 0 17 0 29 4376
2016-07-09 2 9 1 33 3581
2016-07-10 0 17 0 30 3953
2016-07-11 0 19 0 33 3994
2016-07-12 0 6 0 34 4003
2016-07-13 0 6 0 29 3703
2016-07-14 0 9 0 36 3393
2016-07-15 0 12 0 46 3985
2016-07-16 0 8 0 49 3862
2016-07-17 1 15 0 46 6224
2016-07-18 3 49 0 48 9490
2016-07-19 5 19 0 58 12133
2016-07-20 1 27 0 53 6421
2016-07-21 0 15 0 44 4051
2016-07-22 1 24 0 35 2980
2016-07-23 0 9 0 46 2786
2016-07-24 0 5 0 50 3313
2016-07-25 0 18 0 48 3778
2016-07-26 1 16 0 49 3234
2016-07-27 1 13 1 45 3378
2016-07-28 0 28 0 42 4140
2016-07-29 0 14 0 54 4296
2016-07-30 0 16 0 49 6668
2016-07-31 1 24 0 56 5487
Juin 2016 30 565 5 53 211715
Mai 2016 40 1116 8 94 166514
2016-05-01 0 19 0 47 4888
2016-05-02 0 14 0 22 13022
2016-05-03 0 23 0 27 4139
2016-05-04 1 18 1 27 2753
2016-05-05 1 23 0 20 2962
2016-05-06 1 19 0 19 3036
2016-05-07 5 34 1 37 3070
2016-05-08 1 30 0 33 3881
2016-05-09 1 24 0 41 3841
2016-05-10 1 14 0 23 3570
2016-05-11 0 14 0 23 3294
2016-05-12 1 24 1 24 3901
2016-05-13 1 32 0 25 4235
2016-05-14 3 35 0 26 4289
2016-05-15 1 48 0 43 3972
2016-05-16 1 44 0 86 5681
2016-05-17 3 23 0 93 5996
2016-05-18 0 38 0 91 5828
2016-05-19 1 45 0 80 5615
2016-05-20 1 21 0 94 5467
2016-05-21 0 14 0 72 6411
2016-05-22 4 56 1 37 16571
2016-05-23 1 52 0 42 5079
2016-05-24 0 81 0 50 4705
2016-05-25 2 86 1 47 5213
2016-05-26 3 102 1 47 4888
2016-05-27 1 72 1 42 4598
2016-05-28 0 23 0 42 4412
2016-05-29 3 34 0 49 4569
2016-05-30 1 38 1 88 10787
2016-05-31 2 16 0 46 5841
Avril 2016 27 529 7 65 155208
Mars 2016 35 513 11 88 224056
Février 2016 35 640 4 96 192454
Janvier 2016 35 622 8 95 230232
* 2015 373 6684 79 100 1549803
Décembre 2015 28 499 7 68 140303
Novembre 2015 40 724 5 35 146607
Octobre 2015 32 760 10 84 227528
2015-10-01 1 18 0 82 8525
2015-10-02 1 10 0 80 4829
2015-10-03 0 7 0 13 2541
2015-10-04 0 7 0 74 5391
2015-10-05 3 45 2 39 10558
2015-10-06 4 42 1 84 20928
2015-10-07 0 30 0 79 21334
2015-10-08 0 12 0 39 12723
2015-10-09 1 14 2 22 4574
2015-10-10 0 8 0 80 5752
2015-10-11 1 36 0 23 4613
2015-10-12 3 25 0 23 3928
2015-10-13 0 35 0 20 3575
2015-10-14 3 25 0 79 9055
2015-10-15 1 32 0 22 7638
2015-10-16 1 43 0 82 8658
2015-10-17 0 34 0 62 6865
2015-10-18 2 31 0 66 5798
2015-10-19 0 21 0 73 5660
2015-10-20 1 29 0 23 4062
2015-10-21 0 22 0 28 20035
2015-10-22 1 22 1 27 6384
2015-10-23 2 15 0 25 6058
2015-10-24 2 27 2 26 4323
2015-10-25 0 11 0 32 4915
2015-10-26 2 22 0 31 4192
2015-10-27 0 26 1 41 5915
2015-10-28 1 28 0 41 5310
2015-10-29 2 29 0 21 4485
2015-10-30 0 38 0 23 4216
2015-10-31 0 16 1 27 4688
Septembre 2015 40 948 13 100 169012
Août 2015 36 566 12 61 119954
Juillet 2015 29 462 7 31 89666
Juin 2015 24 453 5 30 112317
Mai 2015 30 390 2 24 73874
Avril 2015 29 408 4 25 95371
Mars 2015 38 550 7 37 130116
Février 2015 15 434 2 24 123854
Janvier 2015 32 490 5 44 121201
* 2014 428 7364 58 58 2478164
Décembre 2014 24 360 4 33 191610
2014-12-01 0 4 0 21 6641
2014-12-02 2 17 0 26 7244
2014-12-03 0 9 0 31 7910
2014-12-04 1 11 0 26 8107
2014-12-05 1 10 1 23 7074
2014-12-06 0 6 0 33 8321
2014-12-07 1 18 0 20 5632
2014-12-08 1 17 0 24 7793
2014-12-09 1 19 0 21 5936
2014-12-10 0 8 0 17 5092
2014-12-11 0 6 0 20 5467
2014-12-12 0 6 0 27 7318
2014-12-13 1 17 0 23 10029
2014-12-14 1 6 0 24 6467
2014-12-15 1 12 0 23 8102
2014-12-16 0 12 0 20 6013
2014-12-17 0 3 0 22 6999
2014-12-18 0 5 1 22 6892
2014-12-19 1 10 0 21 7099
2014-12-20 1 13 0 19 7148
2014-12-21 0 2 0 27 4864
2014-12-22 0 2 0 23 5428
2014-12-23 2 12 0 20 5923
2014-12-24 1 11 0 21 4951
2014-12-25 0 8 1 19 4762
2014-12-26 6 28 0 17 4609
2014-12-27 0 21 0 24 6807
2014-12-28 3 51 1 19 4079
2014-12-29 0 9 0 17 3335
2014-12-30 0 3 0 16 2402
2014-12-31 0 4 0 18 3166
Novembre 2014 37 572 7 46 525858
Octobre 2014 45 928 8 58 364915
Septembre 2014 24 549 8 32 162413
Août 2014 17 251 4 27 191624
Juillet 2014 25 369 3 30 236312
2014-07-01 1 10 0 19 5255
2014-07-02 2 27 0 18 5751
2014-07-03 1 33 0 28 6315
2014-07-04 1 28 1 30 9465
2014-07-05 0 18 0 28 10029
2014-07-06 0 9 0 22 8518
2014-07-07 2 9 0 26 4726
2014-07-08 1 9 1 20 6102
2014-07-09 1 7 0 20 6697
2014-07-10 0 5 0 22 5937
2014-07-11 0 12 0 13 5141
2014-07-12 0 8 0 23 8506
2014-07-13 1 7 0 19 9921
2014-07-14 1 16 0 12 5280
2014-07-15 4 12 0 13 3488
2014-07-16 1 7 0 28 10016
2014-07-17 0 9 0 24 16100
2014-07-18 0 11 0 23 16608
2014-07-19 1 7 0 18 16697
2014-07-20 1 7 0 20 4967
2014-07-21 0 1 0 26 6993
2014-07-22 1 11 0 21 8213
2014-07-23 0 13 0 23 8227
2014-07-24 0 1 0 23 8500
2014-07-25 1 8 0 21 8352
2014-07-26 0 4 0 21 6351
2014-07-27 1 22 1 11 2847
2014-07-28 2 21 0 17 4541
2014-07-29 0 7 0 16 6234
2014-07-30 0 17 0 18 5977
2014-07-31 2 13 0 15 4558
Juin 2014 29 602 3 32 220918
2014-06-01 1 5 0 24 6791
2014-06-02 1 10 0 20 3083
2014-06-03 1 21 0 28 5918
2014-06-04 0 9 0 24 7578
2014-06-05 2 32 0 23 6468
2014-06-06 0 15 0 27 5750
2014-06-07 1 20 0 27 6064
2014-06-08 0 16 0 25 5982
2014-06-09 0 15 0 31 5881
2014-06-10 1 15 0 27 6293
2014-06-11 1 26 0 32 9966
2014-06-12 1 15 0 24 9897
2014-06-13 1 18 0 29 6454
2014-06-14 3 16 1 18 6297
2014-06-15 0 27 0 28 10859
2014-06-16 1 25 0 27 11904
2014-06-17 1 24 0 27 7926
2014-06-18 1 36 0 25 7600
2014-06-19 0 16 0 25 7850
2014-06-20 0 21 1 17 5649
2014-06-21 1 24 0 16 7833
2014-06-22 1 12 1 19 11161
2014-06-23 4 41 0 25 12869
2014-06-24 2 29 0 20 12603
2014-06-25 1 27 0 20 6974
2014-06-26 2 21 0 20 4216
2014-06-27 1 17 0 20 5405
2014-06-28 0 12 0 15 4740
2014-06-29 0 20 0 16 4717
2014-06-30 1 17 0 18 6190
Mai 2014 34 842 6 29 157174
2014-05-01 2 54 0 15 2998
2014-05-02 0 19 1 14 4416
2014-05-03 1 14 0 12 2336
2014-05-04 1 28 0 18 11859
2014-05-05 0 15 0 14 1396
2014-05-06 0 11 1 22 4797
2014-05-07 0 9 0 18 3829
2014-05-08 2 27 0 22 3479
2014-05-09 2 33 0 14 3211
2014-05-10 0 18 0 16 3340
2014-05-11 2 36 1 19 4081
2014-05-12 3 64 0 20 4198
2014-05-13 2 32 0 19 3565
2014-05-14 0 20 0 26 2887
2014-05-15 2 23 0 22 3577
2014-05-16 0 11 0 22 3219
2014-05-17 2 16 0 22 3583
2014-05-18 1 16 1 19 4010
2014-05-19 3 51 1 22 4120
2014-05-20 1 19 0 20 8095
2014-05-21 0 28 0 18 6029
2014-05-22 1 42 0 20 3420
2014-05-23 1 46 0 26 7952
2014-05-24 0 31 0 27 3774
2014-05-25 2 60 0 25 7974
2014-05-26 2 56 0 24 11539
2014-05-27 1 15 0 22 8592
2014-05-28 1 16 0 21 5451
2014-05-29 0 9 0 21 5330
2014-05-30 2 12 1 29 7112
2014-05-31 0 11 0 25 7005
Avril 2014 45 662 1 25 104486
Mars 2014 32 595 4 26 120439
Février 2014 24 660 5 28 102996
2014-02-01 1 22 0 23 2869
2014-02-02 1 33 0 22 3362
2014-02-03 1 60 0 23 3816
2014-02-04 0 33 0 20 3763
2014-02-05 0 40 0 18 3526
2014-02-06 1 21 1 15 3424
2014-02-07 1 22 0 16 2254
2014-02-08 2 20 0 13 1959
2014-02-09 2 42 0 14 4999
2014-02-10 0 32 0 19 2823
2014-02-11 3 37 0 14 2859
2014-02-12 0 24 0 15 2417
2014-02-13 0 16 1 15 2924
2014-02-14 0 11 0 14 2482
2014-02-15 1 16 1 18 3069
2014-02-16 0 13 0 24 3497
2014-02-17 0 5 0 20 3495
2014-02-18 0 9 0 19 3924
2014-02-19 3 21 0 25 5311
2014-02-20 0 58 0 24 6280
2014-02-21 0 22 0 22 4472
2014-02-22 0 14 1 22 3599
2014-02-23 1 23 1 21 5173
2014-02-24 0 14 0 26 3800
2014-02-25 0 9 0 28 6099
2014-02-26 3 10 0 19 3668
2014-02-27 1 17 0 24 3604
2014-02-28 3 16 0 22 3528
Janvier 2014 92 974 5 33 99419
2014-01-01 4 34 0 24 3312
2014-01-02 0 50 0 23 4511
2014-01-03 0 43 0 20 2895
2014-01-04 3 41 0 17 4764
2014-01-05 1 17 0 25 4039
2014-01-06 4 36 0 25 5158
2014-01-07 48 63 0 17 3220
2014-01-08 1 19 0 24 3415
2014-01-09 0 34 0 27 4672
2014-01-10 2 27 1 25 3536
2014-01-11 1 18 0 33 2773
2014-01-12 0 29 0 17 4429
2014-01-13 1 18 0 15 2791
2014-01-14 2 30 0 17 2962
2014-01-15 3 21 0 15 2763
2014-01-16 1 18 0 11 2260
2014-01-17 1 13 0 13 2305
2014-01-18 0 20 0 13 2086
2014-01-19 0 26 0 11 1961
2014-01-20 6 56 0 13 2554
2014-01-21 0 38 0 16 2432
2014-01-22 0 14 0 20 4564
2014-01-23 0 20 1 21 3405
2014-01-24 1 16 0 20 2979
2014-01-25 1 31 1 14 2094
2014-01-26 3 38 0 14 3666
2014-01-27 1 43 1 16 3439
2014-01-28 1 43 1 15 2432
2014-01-29 3 34 0 15 2213
2014-01-30 2 36 0 16 3217
2014-01-31 2 48 0 17 2572
* 2013 408 8887 76 89 1597727
Décembre 2013 36 785 2 79 132305
Novembre 2013 36 751 8 29 141119
Octobre 2013 37 683 10 26 116570
Septembre 2013 33 723 15 29 160779
Août 2013 20 356 4 30 113960
Juillet 2013 21 331 2 24 120164
Juin 2013 40 731 5 34 119512
Mai 2013 34 881 3 47 157484
Avril 2013 38 799 8 33 124279
Mars 2013 40 1111 9 62 147762
Février 2013 32 838 5 79 125299
2013-02-01 2 20 1 38 4770
2013-02-02 0 12 0 40 3753
2013-02-03 3 19 0 33 3610
2013-02-04 0 34 0 41 4908
2013-02-05 2 22 0 22 4094
2013-02-06 0 19 0 20 3240
2013-02-07 0 22 1 79 4987
2013-02-08 0 26 0 16 2458
2013-02-09 0 34 0 14 2084
2013-02-10 0 16 0 16 2327
2013-02-11 3 27 0 61 4020
2013-02-12 5 48 1 47 4064
2013-02-13 1 79 0 37 3898
2013-02-14 3 74 1 34 3452
2013-02-15 1 45 0 31 3283
2013-02-16 1 31 1 37 3089
2013-02-17 3 30 0 45 3996
2013-02-18 1 42 0 56 3300
2013-02-19 1 43 0 52 5836
2013-02-20 0 24 0 43 5131
2013-02-21 0 33 0 52 5984
2013-02-22 1 20 0 44 4402
2013-02-23 0 17 0 49 3514
2013-02-24 1 18 0 20 5210
2013-02-25 2 21 0 23 9279
2013-02-26 0 18 0 35 9894
2013-02-27 2 20 0 40 5096
2013-02-28 0 24 0 52 5620
Janvier 2013 41 898 5 89 138494
* 2012 446 10690 67 157 1274957
Décembre 2012 57 1411 4 45 150137
Novembre 2012 46 1137 8 25 112399
Octobre 2012 45 1068 7 25 80970
Septembre 2012 37 876 11 38 107023
Août 2012 30 595 5 41 95032
Juillet 2012 24 563 2 157 78638
Juin 2012 39 984 10 33 88620
Mai 2012 22 703 5 26 77701
Avril 2012 33 714 4 33 95151
Mars 2012 35 977 5 48 160160
Février 2012 34 704 5 33 117877
2012-02-01 4 29 0 21 3610
2012-02-02 2 26 0 24 5279
2012-02-03 0 13 0 16 3779
2012-02-04 1 23 0 19 3802
2012-02-05 1 18 0 21 4835
2012-02-06 4 31 1 28 4403
2012-02-07 3 36 0 21 3830
2012-02-08 0 16 0 21 3805
2012-02-09 1 23 0 21 3894
2012-02-10 0 29 1 23 3679
2012-02-11 0 7 0 24 3043
2012-02-12 0 17 0 25 3175
2012-02-13 2 14 1 13 2124
2012-02-14 0 34 0 22 3657
2012-02-15 2 25 0 25 3278
2012-02-16 0 5 0 24 2556
2012-02-17 0 15 1 24 3186
2012-02-18 1 10 0 17 2384
2012-02-19 4 21 0 20 2559
2012-02-20 1 31 0 23 2799
2012-02-21 1 45 0 21 4992
2012-02-22 0 31 0 32 6101
2012-02-23 0 9 0 31 5330
2012-02-24 1 28 0 22 4611
2012-02-25 2 20 1 32 4925
2012-02-26 2 50 0 29 5297
2012-02-27 1 26 0 33 4546
2012-02-28 1 45 0 23 5919
2012-02-29 0 27 0 26 6479
Janvier 2012 44 958 1 30 111249
* 2011 822 21877 118 48 1861895
Décembre 2011 68 1315 7 36 141929
Novembre 2011 94 1539 4 36 150015
Octobre 2011 81 1597 13 41 169207
Septembre 2011 96 1991 19 24 158540
Août 2011 68 1372 16 48 135201
Juillet 2011 57 1156 10 30 112626
2011-07-01 2 18 0 21 5455
2011-07-02 5 34 1 13 3807
2011-07-03 0 47 1 29 3624
2011-07-04 3 75 1 23 5753
2011-07-05 1 54 1 17 5269
2011-07-06 1 25 0 17 4105
2011-07-07 0 25 0 30 3217
2011-07-08 3 74 0 17 4521
2011-07-09 8 29 1 18 2897
2011-07-10 1 54 0 21 5965
2011-07-11 3 38 2 18 4473
2011-07-12 2 66 0 14 3417
2011-07-13 5 73 0 19 3850
2011-07-14 0 38 0 15 3112
2011-07-15 0 29 0 17 2768
2011-07-16 1 17 0 21 4404
2011-07-17 0 18 0 15 4901
2011-07-18 1 25 0 18 2740
2011-07-19 1 15 0 14 2640
2011-07-20 1 48 0 20 3211
2011-07-21 2 24 1 15 2768
2011-07-22 2 46 0 17 3321
2011-07-23 1 24 1 12 2352
2011-07-24 8 31 0 15 2544
2011-07-25 3 56 0 19 3247
2011-07-26 1 31 1 12 3398
2011-07-27 1 35 0 19 3127
2011-07-28 0 28 0 24 3297
2011-07-29 0 28 0 16 2641
2011-07-30 0 12 0 17 2551
2011-07-31 1 39 0 17 3251
Juin 2011 40 1214 6 31 149115
Mai 2011 64 1997 8 39 181997
Avril 2011 46 1637 9 38 176986
Mars 2011 54 2388 6 31 211307
Février 2011 59 2656 5 46 128248
Janvier 2011 95 3015 15 44 146724
2011-01-01 4 28 1 33 3209
2011-01-02 3 53 0 27 3194
2011-01-03 4 120 0 23 4999
2011-01-04 4 123 0 25 4781
2011-01-05 2 129 0 36 4810
2011-01-06 3 97 1 27 4554
2011-01-07 0 98 0 25 4909
2011-01-08 1 28 1 20 3049
2011-01-09 3 61 0 20 3543
2011-01-10 3 87 0 36 4897
2011-01-11 1 79 1 25 4007
2011-01-12 2 149 0 34 5515
2011-01-13 6 143 3 40 5584
2011-01-14 5 244 0 29 8061
2011-01-15 1 41 0 36 4401
2011-01-16 9 38 0 23 3832
2011-01-17 2 153 0 44 6302
2011-01-18 4 85 0 32 5425
2011-01-19 4 92 0 29 4997
2011-01-20 5 99 1 25 4295
2011-01-21 3 75 0 30 4089
2011-01-22 3 45 1 32 3479
2011-01-23 1 85 1 32 4851
2011-01-24 1 79 0 35 4531
2011-01-25 2 98 0 30 5112
2011-01-26 4 137 3 25 5274
2011-01-27 1 118 0 27 5128
2011-01-28 4 130 1 32 5328
2011-01-29 1 78 0 25 4103
2011-01-30 2 58 0 33 3935
2011-01-31 7 165 1 33 6530
* 2010 615 23079 70 91 1409620
Décembre 2010 54 2635 5 43 199984
Novembre 2010 59 2475 6 49 127779
Octobre 2010 56 2811 15 58 134942
2010-10-01 1 27 0 18 2575
2010-10-02 0 7 0 14 2199
2010-10-03 2 20 1 13 2150
2010-10-04 3 117 0 25 4970
2010-10-05 4 100 2 23 4774
2010-10-06 4 161 2 17 4633
2010-10-07 3 125 0 23 4574
2010-10-08 3 149 0 22 4322
2010-10-09 1 41 0 10 2439
2010-10-10 0 73 0 19 3425
2010-10-11 1 71 0 17 3794
2010-10-12 4 99 0 20 4927
2010-10-13 3 122 0 31 4968
2010-10-14 2 103 0 35 4902
2010-10-15 1 135 0 35 4851
2010-10-16 2 49 0 30 3550
2010-10-17 1 89 2 45 4610
2010-10-18 2 133 3 45 5301
2010-10-19 2 99 0 30 4707
2010-10-20 2 110 2 47 4597
2010-10-21 1 121 0 41 5105
2010-10-22 0 77 0 41 4177
2010-10-23 0 59 0 28 3880
2010-10-24 3 75 0 33 4059
2010-10-25 1 114 0 58 5595
2010-10-26 0 91 0 37 5246
2010-10-27 3 121 1 41 5815
2010-10-28 1 115 0 33 5457
2010-10-29 2 72 0 36 4402
2010-10-30 2 53 1 37 4041
2010-10-31 2 83 1 45 4897
Septembre 2010 53 1528 8 29 95249
Août 2010 32 1287 6 33 89617
Juillet 2010 34 1637 5 32 97290
Juin 2010 46 2137 3 28 109648
Mai 2010 50 1497 6 28 99050
Avril 2010 45 1888 3 26 102219
Mars 2010 53 1534 2 46 118201
Février 2010 65 1574 4 91 117274
Janvier 2010 68 2076 7 43 118367
* 2009 752 28223 96 159 970278
Décembre 2009 39 2001 5 54 122418
Novembre 2009 59 3138 6 38 117432
Octobre 2009 67 3218 11 18 122232
2009-10-01 0 76 0 11 2516
2009-10-02 1 64 0 10 2579
2009-10-03 2 101 0 11 2851
2009-10-04 1 126 0 12 3520
2009-10-05 4 87 0 15 3448
2009-10-06 5 84 0 13 3357
2009-10-07 3 120 1 11 3765
2009-10-08 3 194 0 14 4579
2009-10-09 0 85 0 11 2918
2009-10-10 3 88 1 11 2279
2009-10-11 4 158 1 12 4547
2009-10-12 3 160 0 13 4399
2009-10-13 4 115 1 16 3779
2009-10-14 1 84 0 13 3531
2009-10-15 0 71 0 14 3213
2009-10-16 0 67 0 17 11597
2009-10-17 1 50 0 17 3148
2009-10-18 0 67 1 16 4508
2009-10-19 4 165 1 18 5455
2009-10-20 0 85 0 14 3066
2009-10-21 3 105 1 12 4822
2009-10-22 2 99 1 13 3611
2009-10-23 2 108 0 15 3666
2009-10-24 1 67 1 12 2884
2009-10-25 1 79 0 15 3733
2009-10-26 3 100 1 13 3989
2009-10-27 5 143 0 15 4733
2009-10-28 0 60 1 12 2921
2009-10-29 1 120 0 14 3964
2009-10-30 4 193 0 17 4507
2009-10-31 6 97 0 15 4347
Septembre 2009 73 2730 14 159 92082
Août 2009 47 1405 8 15 61919
Juillet 2009 68 1737 11 21 67267
Juin 2009 63 2759 4 37 72789
2009-06-01 2 158 0 10 2944
2009-06-02 2 130 0 11 2903
2009-06-03 1 94 0 10 2141
2009-06-04 1 73 0 10 2152
2009-06-05 0 73 0 9 1915
2009-06-06 4 73 0 9 1406
2009-06-07 7 84 0 12 2068
2009-06-08 0 91 0 10 2235
2009-06-09 2 105 0 14 2686
2009-06-10 1 63 0 10 1917
2009-06-11 2 98 1 10 2352
2009-06-12 1 110 0 13 2659
2009-06-13 1 24 0 12 1572
2009-06-14 1 96 0 11 2188
2009-06-15 5 109 0 15 2673
2009-06-16 0 91 0 14 2713
2009-06-17 1 59 0 29 2049
2009-06-18 2 72 0 0 2339
2009-06-19 2 95 0 13 2336
2009-06-20 5 74 0 13 1883
2009-06-21 2 74 0 11 2259
2009-06-22 4 77 1 37 3040
2009-06-23 2 92 0 11 2504
2009-06-24 1 56 0 13 1784
2009-06-25 3 93 1 12 2373
2009-06-26 2 121 0 10 3083
2009-06-27 1 74 0 12 1964
2009-06-28 3 98 0 10 2698
2009-06-29 2 160 0 13 3452
2009-06-30 3 142 1 13 4501
Mai 2009 46 2166 6 16 66386
Avril 2009 101 2850 6 16 73303
Mars 2009 80 3538 7 17 83610
Février 2009 57 1586 6 16 50521
Janvier 2009 52 1095 12 10 40319
2009-01-01 2 21 0 5 768
2009-01-02 5 32 2 7 1486
2009-01-03 1 17 0 6 910
2009-01-04 0 22 0 9 1555
2009-01-05 0 28 0 7 972
2009-01-06 1 17 1 7 734
2009-01-07 4 49 0 7 1072
2009-01-08 1 33 0 8 1218
2009-01-09 1 36 0 7 1148
2009-01-10 1 19 0 9 1249
2009-01-11 2 35 0 8 1138
2009-01-12 1 21 2 8 1085
2009-01-13 1 22 0 9 926
2009-01-14 1 38 1 6 1577
2009-01-15 2 24 0 6 1142
2009-01-16 1 22 0 9 1101
2009-01-17 1 19 0 6 937
2009-01-18 1 19 0 8 1091
2009-01-19 0 8 1 7 864
2009-01-20 2 22 1 10 1014
2009-01-21 3 89 0 10 2235
2009-01-22 0 50 0 8 1433
2009-01-23 0 34 0 8 1281
2009-01-24 2 18 0 7 902
2009-01-25 5 71 2 9 2028
2009-01-26 1 85 0 10 2278
2009-01-27 4 48 1 8 1679
2009-01-28 3 72 0 8 1963
2009-01-29 3 63 0 8 1669
2009-01-30 1 38 0 9 1324
2009-01-31 2 23 1 9 1540
* 2008 334 4655 56 26 234055
Décembre 2008 36 663 7 12 28104
Novembre 2008 51 1090 9 10 35948
Octobre 2008 50 609 5 10 26582
2008-10-01 4 74 0 10 1718
2008-10-02 0 20 1 7 955
2008-10-03 3 35 0 7 1660
2008-10-04 0 8 0 5 1228
2008-10-05 3 31 0 7 1306
2008-10-06 4 28 0 8 771
2008-10-07 0 12 0 9 791
2008-10-08 0 2 0 5 459
2008-10-09 1 13 0 7 501
2008-10-10 1 14 1 7 785
2008-10-11 1 7 0 5 486
2008-10-12 2 19 0 7 758
2008-10-13 4 29 0 6 852
2008-10-14 1 12 0 6 550
2008-10-15 2 15 0 7 607
2008-10-16 0 14 0 4 475
2008-10-17 1 18 1 6 748
2008-10-18 1 22 0 7 727
2008-10-19 4 26 1 7 1372
2008-10-20 1 13 0 10 751
2008-10-21 0 16 0 5 751
2008-10-22 1 10 0 4 431
2008-10-23 3 24 0 7 840
2008-10-24 0 20 0 5 732
2008-10-25 1 6 0 6 746
2008-10-26 3 19 0 6 777
2008-10-27 5 26 0 8 792
2008-10-28 3 29 1 8 1405
2008-10-29 1 17 0 6 1065
2008-10-30 0 12 0 5 819
2008-10-31 0 18 0 7 724
Septembre 2008 40 619 5 10 24365
Août 2008 28 252 6 9 21916
Juillet 2008 20 256 5 7 16733
2008-07-01 1 11 0 5 499
2008-07-02 0 6 1 3 428
2008-07-03 1 15 0 7 504
2008-07-04 0 11 0 0 562
2008-07-05 0 3 1 5 416
2008-07-06 2 8 0 4 518
2008-07-07 0 6 0 5 766
2008-07-08 1 7 0 5 391
2008-07-09 2 18 0 5 586
2008-07-10 0 9 0 4 473
2008-07-11 0 5 0 0 440
2008-07-12 0 0 0 3 232
2008-07-13 0 2 0 2 270
2008-07-14 0 2 0 3 291
2008-07-15 2 10 0 4 395
2008-07-16 0 6 0 5 497
2008-07-17 1 12 0 4 772
2008-07-18 0 8 1 5 640
2008-07-19 1 6 0 4 328
2008-07-20 0 4 0 4 336
2008-07-21 1 12 1 5 586
2008-07-22 3 17 0 5 650
2008-07-23 0 9 0 4 678
2008-07-24 2 9 1 5 1046
2008-07-25 0 2 0 0 497
2008-07-26 0 4 0 5 493
2008-07-27 1 10 0 6 1290
2008-07-28 1 13 0 4 446
2008-07-29 0 11 0 3 514
2008-07-30 0 12 0 5 698
2008-07-31 1 8 0 0 491
Juin 2008 17 363 6 26 18903
2008-06-01 1 5 0 4 292
2008-06-02 0 5 0 0 275
2008-06-03 1 18 0 0 394
2008-06-04 1 12 0 5 364
2008-06-05 0 20 0 5 515
2008-06-06 0 9 0 5 345
2008-06-07 1 9 0 3 329
2008-06-08 0 6 0 4 483
2008-06-09 0 6 0 4 293
2008-06-10 1 4 0 26 378
2008-06-11 1 5 0 3 352
2008-06-12 0 3 0 3 313
2008-06-13 0 2 0 0 459
2008-06-14 3 6 2 5 745
2008-06-15 0 5 0 4 1117
2008-06-16 0 26 0 6 920
2008-06-17 1 24 1 6 870
2008-06-18 1 36 0 6 1390
2008-06-19 0 33 0 6 1026
2008-06-20 1 31 1 6 1005
2008-06-21 0 19 0 5 1268
2008-06-22 0 3 0 3 453
2008-06-23 0 1 0 6 520
2008-06-24 0 7 0 5 332
2008-06-25 3 25 1 8 752
2008-06-26 1 22 0 5 752
2008-06-27 0 8 0 5 928
2008-06-28 0 4 1 4 1001
2008-06-29 1 4 0 8 610
2008-06-30 0 5 0 5 422
Mai 2008 17 180 2 10 13320
Avril 2008 16 146 3 8 16063
2008-04-01 1 11 0 4 553
2008-04-02 0 4 0 7 503
2008-04-03 2 14 1 4 1518
2008-04-04 0 6 0 0 1184
2008-04-05 0 2 0 3 955
2008-04-06 1 4 0 4 680
2008-04-07 1 6 0 4 582
2008-04-08 0 6 0 4 448
2008-04-09 0 1 0 3 419
2008-04-10 1 1 0 5 432
2008-04-11 0 1 0 3 780
2008-04-12 0 4 0 5 909
2008-04-13 0 4 0 3 540
2008-04-14 0 3 1 0 516
2008-04-15 0 1 0 0 343
2008-04-16 0 3 0 0 602
2008-04-17 0 0 0 8 283
2008-04-18 0 1 0 0 415
2008-04-19 0 1 1 4 429
2008-04-20 2 3 0 4 410
2008-04-21 3 15 0 4 521
2008-04-22 0 14 0 6 672
2008-04-23 1 12 0 4 399
2008-04-24 0 3 0 4 350
2008-04-25 0 2 0 4 190
2008-04-26 2 4 0 5 229
2008-04-27 0 2 0 4 308
2008-04-28 0 1 0 4 265
2008-04-29 0 4 0 4 250
2008-04-30 2 13 0 5 378
Mars 2008 18 158 1 9 12835
Février 2008 19 155 2 9 9679
2008-02-01 1 10 0 4 268
2008-02-02 0 7 0 0 349
2008-02-03 0 1 0 5 248
2008-02-04 6 11 0 4 440
2008-02-05 0 11 0 0 497
2008-02-06 0 3 0 5 239
2008-02-07 0 5 0 0 333
2008-02-08 2 3 0 4 257
2008-02-09 0 3 0 5 219
2008-02-10 0 0 0 3 182
2008-02-11 1 8 0 6 281
2008-02-12 0 4 0 4 281
2008-02-13 0 2 0 4 191
2008-02-14 0 4 0 3 211
2008-02-15 0 8 0 5 258
2008-02-16 1 3 0 4 214
2008-02-17 0 8 1 4 460
2008-02-18 2 6 0 4 401
2008-02-19 1 4 0 5 515
2008-02-20 1 7 0 4 467
2008-02-21 1 3 0 5 489
2008-02-22 1 9 0 4 359
2008-02-23 0 2 0 4 179
2008-02-24 1 3 0 3 277
2008-02-25 0 4 0 4 516
2008-02-26 0 12 0 5 456
2008-02-27 0 5 1 5 449
2008-02-28 0 3 0 3 330
2008-02-29 1 6 0 9 313
Janvier 2008 22 164 5 7 9607
* 2007 276 2246 55 9 102999
Décembre 2007 21 167 5 8 17081
Novembre 2007 20 168 3 6 8467
Octobre 2007 21 147 4 5 8193
Septembre 2007 22 183 4 9 9896
Août 2007 23 226 2 6 9096
2007-08-01 1 11 0 0 281
2007-08-02 0 4 0 4 224
2007-08-03 2 13 1 0 357
2007-08-04 0 5 0 3 265
2007-08-05 0 0 0 1 129
2007-08-06 1 1 0 2 171
2007-08-07 1 2 0 0 211
2007-08-08 0 0 0 2 132
2007-08-09 1 3 0 2 133
2007-08-10 0 1 0 2 177
2007-08-11 0 0 0 2 104
2007-08-12 0 0 0 3 97
2007-08-13 0 3 0 3 220
2007-08-14 0 0 0 3 199
2007-08-15 0 0 0 0 163
2007-08-16 1 4 0 2 166
2007-08-17 0 6 0 5 274
2007-08-18 0 3 1 3 274
2007-08-19 1 4 0 3 258
2007-08-20 1 14 0 4 417
2007-08-21 2 9 0 3 352
2007-08-22 1 18 0 3 434
2007-08-23 1 12 0 4 412
2007-08-24 0 7 0 6 267
2007-08-25 0 7 0 5 265
2007-08-26 2 11 0 4 363
2007-08-27 1 27 0 6 720
2007-08-28 1 17 0 0 580
2007-08-29 2 9 0 0 492
2007-08-30 3 27 0 5 648
2007-08-31 1 8 0 5 311
Juillet 2007 18 127 1 4 10165
Juin 2007 25 309 2 6 13196
Mai 2007 30 315 8 7 11830
Avril 2007 44 428 13 9 13382
Mars 2007 52 176 13 4 1693